Showing default

CYGFM05, 41884

Orbit data source: Space-Track

CYGFM05, 41884 is an American payload satellite in LEO that was launched on Thu, 15 Dec 2016 UTC via a PEGASUS XL launch vehicle from the Pegasus Launch, Eastern Range Air Space (ERAS). Payload-class satellites include a variety of spacecraft equipped with specific instruments for various scientific and technological missions. These include communications satellites like Starlink; space stations such as the ISS; scientific satellites like the Hubble; Earth observation satellites from companies like Planet Labs, Umbra, and HawkEye 360; GPS; miniature CubeSats for education and research; and military/defense satellites.

Loading next visibility...
Identifier
41884, 2016-078A
Orbit
LEO
Country
Flag of USUS
Related business
Manufacturer
SST-US
Mission
Extended mission Civil Earth Obs Sci
Bus & Motor
CYGNSS, Unknown motor
Mass
29 kg wet, 29 kg dry
Launch date (UTC)
2016-12-15 (10 years ago)
Launch vehicle
PEGASUS XL
Launch site
Pegasus Launch, Eastern Range Air Space (ERAS)
Object type
Payload
Rocket body
Debris
Shape & HBR
Half Hex Cyl + 2 Pan, 2.5 m
Radar Cross Section
0.450 m², Medium (>0.1 m² and < 1m²)

Expand to show TLE details & history
Last TLE update: 23 hours ago

TLE from 23 hours ago
0 CYGFM05
1 41884U 16078A   26256.76401196  .00025628  00000-0  29992-3 0  9999
2 41884  34.9571  32.3593 0005582 281.3032  78.7066 15.60523325542580
Epoch: 2026-09-13T18:20Z
TLE epoch observation values (Epoch: 2026-09-13T18:20:10.633Z)
Latitude
-0.00003°
Longitude
124.56097°
Altitude
384.292 km
Speed
7.682 km/s
True Right ascension
02h 09m 26s
True Declination
0° 00' 00"
Sunlit
Object was in full shadow at epoch
Visualization orbit readout
Latitude
Unknown
Longitude
Unknown
Altitude
Unknown
Speed
Unknown
Apparent Right ascension
Unknown
Apparent Declination
Unknown
Sunlit
N/A
Visualization observer readout
Local Sidereal Time
09:57:17
Azimuth
Unknown
Elevation
Unknown
Doppler factor
Unknown
Orbital elements
Apogee altitude
393.232 km
Perigee altitude
385.677 km
Semi-major axis
6,767.591 km
Eccentricity
0.00056
Inclination
34.9571°
RAAN
32.3593°
Arg. of periapsis
281.3032°
True anomaly
78.76934°
Mean anomaly
78.7066°
Eccentric anomaly
78.73797°
Mean motion
3.89845 °/min
Orbital period
92.34 mins
BSTAR
0.00029992
Loading maneuver chart data...
Computing Atmospheric mass density...
Loading historical data...
Loading historical data...
Loading historical data...
Loading historical data...
Loading historical data...
Loading historical data...
Loading historical data...

Documentation

Showing up to 5 results
|